Goshen, IN

11:59 PM EST on November 19, 2017 (GMT -0500)
Goshen Municipal

Weather History for KGSH - December, 2010

Change the Weather History Date:

Sunday, December 12, 2010

  Actual Average Record
Temperature  
Mean Temperature 29 °F -  
Max Temperature 37 °F 38 °F 64 °F (2015)
Min Temperature 19 °F 23 °F -5 °F (1962)
Degree Days  
Heating Degree Days 36    
Moisture  
Dew Point 24 °F    
Average Humidity 90    
Maximum Humidity 100    
Minimum Humidity 78    
Precipitation  
Precipitation 0.07 in - - ()
Sea Level Pressure  
Sea Level Pressure 29.50 in    
Wind  
Wind Speed 13 mph (WNW)    
Max Wind Speed 26 mph    
Max Gust Speed 41 mph    
Visibility 3 miles    
Events Fog , Rain , Snow    
Averages and records for this station are not official NWS values.
T = Trace of Precipitation, MM = Missing Value Source: NWS Daily Summary

Daily Weather History Graph

Daily Weather History Graph

Search for Another Location

Airport or City:

Trip Planner

Search our weather history database for the weather conditions in past years. The results will help you decide how hot, cold, wet, or windy it might be!

Date:

Astronomy

Dec. 12, 2010 Rise Set
Actual Time 8:00 AM EST 5:13 PM EST
Civil Twilight 7:29 AM EST 5:44 PM EST
Nautical Twilight 6:54 AM EST 6:19 PM EST
Astronomical Twilight 6:20 AM EST 6:53 PM EST
Moon 12:11 PM EST (12/12) No Moon Set
Length of Visible Light 10h 15m
Length of Day
9h 12m
Waxing Crescent, 42% of the Moon is Illuminated
Dec 12
Waxing Crescent
Dec 13
First Quarter
Dec 21
Full
Dec 27
Last Quarter
Jan 4
New

Hourly Weather History & Observations

Time (EST) Temp. Windchill Dew Point Humidity Pressure Visibility Wind Dir Wind Speed Gust Speed Precip Events Conditions
12:08 AM 37.4 °F 30.3 °F 35.6 °F 93% 29.47 in 3.0 mi SE 10.4 mph - 0.01 in   Overcast
12:15 AM 37.4 °F 30.8 °F 35.6 °F 93% 29.47 in 3.0 mi ESE 9.2 mph - 0.01 in   Overcast
12:28 AM 37.4 °F 30.3 °F 35.6 °F 93% 29.46 in 2.5 mi SE 10.4 mph - 0.01 in   Overcast
12:53 AM 37.0 °F 30.4 °F 36.0 °F 96% 29.49 in 2.5 mi SE 9.2 mph - 0.01 in   Overcast
1:25 AM 37.4 °F 33.8 °F 37.4 °F 100% 29.46 in 2.0 mi South 4.6 mph - 0.01 in   Overcast
1:53 AM 37.0 °F 31.6 °F 37.0 °F 100% 29.49 in 2.0 mi SSE 6.9 mph - 0.01 in   Overcast
2:18 AM 33.8 °F 24.3 °F 33.8 °F 100% 29.47 in 4.0 mi West 13.8 mph - 0.01 in Rain Light Rain
2:27 AM 32.0 °F 21.2 °F 30.2 °F 93% 29.47 in 5.0 mi West 16.1 mph - 0.01 in Rain Light Rain
2:53 AM 30.9 °F 19.8 °F 30.9 °F 100% 29.50 in 3.0 mi West 16.1 mph - 0.01 in   Overcast
3:53 AM 30.0 °F 20.5 °F 28.9 °F 96% 29.50 in 2.5 mi West 11.5 mph - 0.00 in   Overcast
4:17 AM 28.4 °F 17.5 °F 28.4 °F 100% 29.47 in 3.0 mi West 13.8 mph - 0.00 in   Overcast
4:53 AM 28.0 °F 18.1 °F 27.0 °F 96% 29.49 in 4.0 mi WSW 11.5 mph - 0.00 in   Overcast
5:53 AM 27.0 °F 18.0 °F 26.1 °F 96% 29.50 in 3.0 mi West 9.2 mph - N/A   Overcast
6:15 AM 28.4 °F 19.1 °F 26.6 °F 93% 29.47 in 2.5 mi WNW 10.4 mph - 0.00 in Snow Light Snow
6:43 AM 26.6 °F 15.7 °F 26.6 °F 100% 29.48 in 3.0 mi WSW 12.7 mph - 0.00 in Snow Light Snow
6:53 AM 26.1 °F 16.2 °F 24.1 °F 92% 29.50 in 4.0 mi WSW 10.4 mph - 0.00 in   Overcast
7:22 AM 24.8 °F 14.6 °F 23.0 °F 93% 29.48 in 3.0 mi WSW 10.4 mph - 0.00 in Snow Light Snow
7:53 AM 25.0 °F 13.6 °F 23.0 °F 92% 29.50 in 4.0 mi West 12.7 mph - 0.00 in Snow Light Snow
8:01 AM 24.8 °F 14.0 °F 23.0 °F 93% 29.47 in 5.0 mi West 11.5 mph - 0.00 in   Overcast
8:13 AM 24.8 °F 14.0 °F 21.2 °F 86% 29.47 in 4.0 mi West 11.5 mph - 0.00 in Snow Light Snow
8:53 AM 24.1 °F 12.0 °F 21.9 °F 91% 29.49 in 5.0 mi West 13.8 mph - 0.00 in   Overcast
9:03 AM 24.8 °F 14.0 °F 21.2 °F 86% 29.47 in 6.0 mi West 11.5 mph - N/A   Overcast
9:46 AM 23.0 °F 10.6 °F 21.2 °F 93% 29.46 in 2.0 mi West 13.8 mph 23.0 mph 0.00 in Snow Light Snow
9:53 AM 23.0 °F 11.7 °F 21.0 °F 92% 29.49 in 1.8 mi West 11.5 mph - 0.00 in Snow Light Snow
10:00 AM 23.0 °F 9.6 °F 21.2 °F 93% 29.46 in 1.8 mi West 16.1 mph - 0.00 in Snow Light Snow
10:10 AM 23.0 °F 9.6 °F 19.4 °F 86% 29.46 in 2.0 mi West 16.1 mph - 0.00 in Snow Light Snow
10:25 AM 23.0 °F 11.1 °F 21.2 °F 93% 29.45 in 3.0 mi West 12.7 mph - 0.00 in Snow Light Snow
10:36 AM 24.8 °F 12.9 °F 21.2 °F 86% 29.45 in 5.0 mi West 13.8 mph - 0.00 in   Overcast
10:53 AM 23.0 °F 9.2 °F 19.9 °F 88% 29.48 in 8.0 mi West 17.3 mph - 0.00 in   Overcast
11:18 AM 23.0 °F 10.1 °F 19.4 °F 86% 29.44 in 7.0 mi WSW 15.0 mph - N/A   Overcast
11:53 AM 23.0 °F 10.1 °F 19.9 °F 88% 29.46 in 8.0 mi West 15.0 mph - N/A   Overcast
12:53 PM 24.1 °F 11.0 °F 21.0 °F 88% 29.45 in 5.0 mi West 16.1 mph 20.7 mph N/A   Overcast
1:11 PM 24.8 °F 12.9 °F 21.2 °F 86% 29.42 in 5.0 mi West 13.8 mph - N/A   Overcast
1:29 PM 24.8 °F 14.0 °F 21.2 °F 86% 29.41 in 2.0 mi WSW 11.5 mph - 0.00 in Snow Light Snow
1:44 PM 24.8 °F 14.6 °F 21.2 °F 86% 29.41 in 1.8 mi West 10.4 mph - 0.00 in Snow Light Snow
1:53 PM 25.0 °F 14.8 °F 21.9 °F 88% 29.44 in 1.2 mi WSW 10.4 mph - 0.00 in Snow Light Snow
2:16 PM 24.8 °F 16.1 °F 23.0 °F 93% 29.41 in 0.8 mi West 8.1 mph - 0.00 in Snow Light Snow
2:24 PM 24.8 °F 15.3 °F 24.8 °F 100% 29.41 in 0.5 mi West 9.2 mph - 0.01 in Fog , Snow Snow
2:53 PM 27.0 °F 18.7 °F 25.0 °F 92% 29.45 in 0.5 mi WNW 8.1 mph - 0.02 in Fog , Snow Snow
3:09 PM 28.4 °F 19.7 °F 26.6 °F 93% 29.43 in 0.5 mi NW 9.2 mph - 0.01 in Fog , Snow Snow
3:28 PM 28.4 °F 15.4 °F 26.6 °F 93% 29.44 in 0.8 mi NNW 19.6 mph 28.8 mph 0.02 in Snow Light Snow
3:39 PM 28.4 °F 14.4 °F 26.6 °F 93% 29.45 in 0.5 mi NNW 23.0 mph 31.1 mph 0.02 in Fog , Snow Snow
3:51 PM 28.4 °F 14.1 °F 24.8 °F 86% 29.46 in 0.8 mi North 24.2 mph 32.2 mph 0.02 in Snow Light Snow
3:53 PM 28.0 °F 13.9 °F 24.1 °F 85% 29.49 in 0.8 mi North 23.0 mph 32.2 mph 0.02 in Snow Light Snow
4:19 PM 26.6 °F 13.1 °F 23.0 °F 86% 29.48 in 1.0 mi North 19.6 mph 31.1 mph 0.00 in Snow Light Snow
4:33 PM 24.8 °F 10.0 °F 21.2 °F 86% 29.50 in 0.8 mi NNW 21.9 mph 27.6 mph 0.00 in Snow Light Snow
4:40 PM 24.8 °F 10.7 °F 21.2 °F 86% 29.50 in 0.8 mi North 19.6 mph 27.6 mph 0.00 in Snow Light Snow
4:53 PM 24.1 °F 9.0 °F 21.0 °F 88% 29.54 in 0.8 mi North 21.9 mph 29.9 mph 0.00 in Snow Light Snow
5:01 PM 24.8 °F 9.6 °F 21.2 °F 86% 29.52 in 0.5 mi North 23.0 mph 28.8 mph 0.00 in Fog , Snow Snow
5:12 PM 24.8 °F 11.1 °F 21.2 °F 86% 29.52 in 0.8 mi North 18.4 mph - 0.00 in Snow Light Snow
5:21 PM 24.8 °F 10.3 °F 19.4 °F 80% 29.53 in 1.2 mi North 20.7 mph 28.8 mph 0.00 in Snow Light Snow
5:39 PM 23.0 °F 6.9 °F 19.4 °F 86% 29.54 in 1.5 mi North 24.2 mph 32.2 mph 0.00 in Snow Light Snow
5:53 PM 23.0 °F 7.2 °F 19.0 °F 85% 29.58 in 1.5 mi North 23.0 mph 34.5 mph 0.00 in Snow Light Snow
6:23 PM 21.2 °F 5.2 °F 17.6 °F 86% 29.57 in 2.0 mi North 21.9 mph 41.4 mph 0.00 in Snow Light Snow
6:42 PM 21.2 °F 6.4 °F 17.6 °F 86% 29.58 in 3.0 mi North 18.4 mph - 0.00 in Snow Light Snow
6:53 PM 21.9 °F 8.2 °F 18.0 °F 85% 29.62 in 2.5 mi NNW 16.1 mph 28.8 mph 0.00 in Snow Light Snow
7:06 PM 21.2 °F 7.3 °F 17.6 °F 86% 29.59 in 1.2 mi North 16.1 mph - 0.00 in Snow Light Snow
7:27 PM 21.2 °F 3.9 °F 17.6 °F 86% 29.60 in 2.0 mi North 26.5 mph 34.5 mph 0.00 in Snow Light Snow
7:53 PM 21.0 °F 5.7 °F 16.0 °F 81% 29.66 in 2.0 mi North 19.6 mph 27.6 mph 0.00 in Snow Light Snow
8:53 PM 21.0 °F 3.9 °F 15.1 °F 78% 29.68 in 5.0 mi North 25.3 mph 34.5 mph 0.00 in   Overcast
9:01 PM 21.2 °F 5.2 °F 15.8 °F 80% 29.64 in 5.0 mi North 21.9 mph 34.5 mph 0.00 in   Overcast
9:53 PM 19.9 °F 3.2 °F 14.0 °F 78% 29.70 in 8.0 mi North 23.0 mph 31.1 mph 0.00 in   Overcast